Lid_Strength_Index
2 2 3 3 3 3 7 11 15 6 8 15 17 14 15 10 12 10 11 12 12 14 14 15 14 15 13 11 11 14 12 14 16 15 11 11 12 12 12 17 18 17 17 16
2 2 3 3 3 4 10 11 11 6 8 18 16 14 14 13 13 12 12 13 12 12 14 16 14 13 11 11 12 13 12 16 21 18 15 12 13 12 11 12 13 17 19 16
2 2 3 3 3 4 9 13 17 11 9 13 14 16 14 14 10 12 12 12 12 13 14 13 15 14 11 11 11 9 10 15 17 21 17 14 15 14 12 13 18 16 15 14
3 3 3 3 3 3 9 11 15 12 14 13 13 14 14 14 14 11 11 13 13 14 15 15 15 13 13 11 10 11 13 16 15 15 14 14 14 14 13 14 14 15 15 13
3 3 3 2 2 4 9 12 13 11 13 12 13 12 13 14 13 12 13 14 13 13 15 14 15 14 14 14 12 13 12 16 15 16 14 14 15 14 14 13 13 13 12 13
3 3 3 3 3 5 10 10 9 13 14 13 15 16 14 13 12 12 11 12 13 14 13 12 11 11 11 11 12 13 13 14 15 18 15 15 18 15 14 13 12 11 14 11
3 3 3 3 3 7 11 12 11 16 20 16 14 13 13 14 13 13 12 12 13 11 10 10 12 12 11 12 12 11 14 13 14 18 15 21 16 13 12 12 11 10 10 9
3 3 3 3 3 5 9 11 12 16 22 15 14 13 14 13 13 14 13 12 11 10 12 16 17 17 16 14 12 12 11 13 15 17 19 16 15 13 12 12 12 9 9 8
3 3 3 3 3 4 9 10 10 13 17 17 12 14 14 17 18 17 14 11 10 11 14 18 23 22 19 20 15 11 11 11 13 16 18 24 15 12 9 9 14 9 9 9
3 3 3 3 3 4 8 10 10 12 18 13 12 15 15 14 16 18 15 14 13 11 17 17 20 23 15 20 17 19 14 13 15 15 17 15 12 9 8 15 13 8 8 8
3 3 3 3 3 4 7 10 9 11 16 13 10 10 11 12 14 17 14 14 16 15 16 18 18 18 16 16 15 15 16 16 15 14 17 18 8 9 12 9 8 8 7 8
3 3 3 3 3 4 6 8 7 8 10 11 9 8 7 9 10 12 12 13 13 12 16 16 18 18 18 15 18 12 16 13 14 13 14 9 9 9 7 7 7 7 7 6
3 3 3 3 4 4 5 10 9 8 11 11 11 10 8 6 7 7 12 11 10 11 8 11 12 16 14 18 16 13 12 10 11 11 9 9 7 6 6 6 7 6 6 6
3 3 3 3 4 4 4 7 7 9 11 14 12 6 8 6 6 7 7 8 7 7 8 11 12 14 11 14 12 13 11 11 11 11 9 8 7 7 6 6 5 6 5 6
4 4 3 3 4 4 5 8 7 7 11 14 11 8 7 6 6 7 6 7 8 9 10 11 12 10 11 12 11 12 9 10 11 12 8 8 8 6 6 6 6 6 6 6
5 4 4 4 4 4 7 10 6 5 6 11 14 8 8 7 6 6 7 6 7 8 10 10 9 6 9 11 14 9 8 7 7 9 7 6 6 5 5 6 5 5 5 5
5 5 4 4 4 5 9 10 5 4 5 11 13 12 7 6 6 6 7 6 7 8 9 10 9 8 8 10 12 9 8 7 7 6 7 8 6 7 6 6 6 5 5 5
5 5 4 4 4 4 6 5 4 4 7 9 13 12 11 5 8 9 6 9 8 9 9 9 10 8 8 12 9 9 8 8 8 7 7 7 6 6 6 6 6 7 7 6
5 5 4 5 6 8 7 3 3 5 8 11 11 13 15 7 8 8 8 8 11 8 10 10 9 12 12 10 10 9 9 9 8 7 7 7 8 8 8 8 8 8 8 7
5 6 8 12 8 3 2 3 7 8 7 8 11 11 12 10 9 9 10 9 12 13 10 9 11 12 9 9 9 8 8 8 8 10 10 9 10 9 9 9 8 8 8 8
7 9 10 7 4 5 6 9 10 10 12 10 9 10 10 8 13 11 9 11 12 14 13 13 12 14 11 9 10 9 9 9 9 9 9 8 8 10 10 10 10 10 10 11
8 7 6 6 8 9 11 11 10 11 12 10 9 10 10 12 9 11 11 12 12 14 12 14 16 13 10 10 10 10 9 9 9 9 9 9 10 10 11 11 12 12 12 12
5 7 8 9 10 13 14 15 12 13 12 10 9 10 9 9 10 11 12 13 13 10 12 13 14 10 9 10 10 10 9 10 10 10 10 10 11 12 12 13 13 13 13 13
9 10 14 12 15 13 12 12 13 11 12 10 8 10 9 9 10 10 12 12 12 14 15 16 12 10 10 10 10 10 11 11 11 11 12 13 13 14 14 14 14 15 15 15
10 9 13 13 11 11 11 11 10 10 8 9 9 10 10 11 12 11 12 14 15 16 17 16 11 10 10 11 10 11 11 11 12 12 13 13 14 14 15 15 15 15 15 15
9 10 10 10 9 9 11 12 11 8 8 8 8 10 11 13 13 13 14 15 18 16 14 12 10 10 11 11 11 11 11 12 12 12 13 13 13 14 14 14 15 15 15 16
10 11 8 11 8 9 10 9 9 7 7 10 10 13 12 11 14 13 12 15 13 12 11 10 10 10 11 10 11 11 11 11 11 12 13 13 13 13 14 15 15 15 16 16